User: anonymous   Login
Location: Unspecified
(0.0000°N, 0.0000°E)
Time: 18:54:36
(UTC+00:00)
Language:

ISS - Orbit

View from above orbital plane
View from above orbital plane
View from above satellite
View from above satellite

Ground track
Ground track

The orbit data is extracted from the following two-line orbital elements,

1 25544U 98067A   15027.57104323  .00009942  00000-0  15985-3 0  7869
2 25544 051.6475 066.1445 0005666 310.8686 170.8110 15.53661622926159
Epoch (UTC): 27 January 2015 13:42:18
Eccentricity: 0.0005666
inclination: 51.6475°
perigee height: 402 km
apogee height: 410 km
right ascension of ascending node: 66.1445°
argument of perigee: 310.8686°
revolutions per day: 15.53661622
mean anomaly at epoch: 170.8110°
orbit number at epoch: 92615

The dashed part of the orbit path shows where the satellite is in the earth's shadow,  

DLR